Voltar ao catálogo

FLOCK 4G 30

AtivoCiênciaSSO
NORAD 62679·PAYLOAD·🇺🇸 United States

Lançado Jan 14, 2025 de Vandenberg Space Force Base

Loading…

Próximas Passagens (próximas 24 horas)

TLE

AtualizadoSource: Space-Track

Época: Sep 13, 2026, 16:36 UTC

1 62679U 25009BY  26256.69203538  .00039495  00000-0  10413-2 0  9994
2 62679  97.3864 338.1933 0002099  23.9620 336.1723 15.38391401150120

Acompanhe FLOCK 4G 30 em tempo real com AllMySat

Download on the App Store